Total_Precipitation_Accumulation
2.28 2.37 3.49 3.50 3.24 3.10 2.96 2.95 2.94 3.03 3.11 3.03 2.79 2.67 2.62 2.60 2.59 2.53 2.30 2.19 2.23 2.39 2.44 2.57 2.64 2.57 2.64 2.65 2.65 2.65 2.72 2.88 2.93 2.75 2.60 2.60 2.70 2.89 2.98 3.01 2.88 2.81 3.25
1.82 2.25 3.35 3.34 3.19 3.01 2.87 2.87 2.81 2.77 2.75 2.76 2.82 2.70 2.62 2.55 2.50 2.30 2.20 2.22 2.26 2.33 2.35 2.44 2.52 2.52 2.54 2.59 2.69 2.80 2.85 2.87 2.97 2.80 2.82 2.80 2.91 2.99 2.96 2.95 3.02 3.03 3.12
1.58 1.86 2.51 3.28 3.17 2.94 2.89 2.93 2.85 2.73 2.53 2.46 2.50 2.48 2.41 2.40 2.37 2.29 2.31 2.29 2.36 2.27 2.16 2.35 2.65 2.64 2.59 2.60 2.65 2.76 2.82 2.82 2.83 2.93 3.40 3.67 3.41 3.32 2.96 2.90 2.94 2.83 2.83
1.43 1.65 1.98 2.93 2.94 2.91 2.92 2.74 2.69 2.48 2.24 2.16 2.21 2.22 2.22 2.31 2.49 2.56 2.51 2.49 2.50 2.27 2.09 2.14 2.54 2.61 2.56 2.43 2.27 2.36 2.51 2.63 2.83 3.11 3.45 3.91 3.82 3.56 3.18 2.98 2.92 2.79 2.70
1.46 1.72 2.44 3.09 2.89 2.85 2.74 2.54 2.53 2.44 2.24 2.12 2.10 2.12 2.24 2.45 2.60 2.61 2.64 2.58 2.50 2.29 2.16 2.24 2.60 2.50 2.44 2.36 2.21 2.25 2.34 2.56 2.90 2.72 2.97 3.42 3.92 4.01 3.32 3.01 2.97 2.98 2.99
1.51 1.76 2.48 2.92 2.66 2.55 2.51 2.44 2.35 2.39 2.41 2.21 2.04 2.12 2.36 2.75 2.78 2.79 2.78 2.51 2.44 2.32 2.34 2.41 2.58 2.54 2.46 2.43 2.34 2.21 2.27 2.57 2.48 2.38 2.79 3.19 3.55 3.75 3.20 3.00 3.02 3.11 3.19
1.30 1.49 2.08 2.67 2.46 2.36 2.33 2.31 2.22 2.27 2.39 2.29 2.07 2.23 2.53 2.91 2.96 2.88 2.68 2.43 2.42 2.41 2.47 2.66 2.68 2.69 2.57 2.42 2.42 2.31 2.26 2.35 2.07 2.30 2.77 3.20 3.32 3.30 3.15 3.00 2.92 3.14 3.38
1.30 1.28 1.55 2.14 2.30 2.18 2.18 2.30 2.23 2.21 2.29 2.22 2.14 2.19 2.40 2.89 2.94 2.86 2.69 2.49 2.38 2.44 2.65 2.96 2.87 2.72 2.50 2.40 2.46 2.53 2.48 2.17 1.77 1.89 2.27 3.03 3.64 3.44 3.11 2.91 2.90 3.02 3.25
1.58 1.45 1.35 1.45 1.71 1.92 2.05 2.18 2.20 2.17 2.10 2.00 2.10 2.17 2.51 3.00 2.84 2.70 2.63 2.56 2.49 2.56 2.66 2.83 2.70 2.56 2.50 2.49 2.48 2.53 2.56 2.39 2.00 1.91 1.92 2.79 3.63 3.59 3.13 2.88 2.81 2.94 3.06
1.70 1.55 1.33 1.22 1.29 1.53 1.65 1.83 2.08 2.14 2.04 1.91 1.98 2.15 2.47 2.98 2.81 2.60 2.47 2.67 2.83 2.87 2.99 3.02 2.76 2.55 2.53 2.42 2.39 2.55 2.56 2.25 1.93 1.80 2.09 2.82 3.76 3.87 3.50 2.91 2.67 2.67 2.72
1.51 1.38 1.24 1.18 1.23 1.36 1.48 1.57 1.94 1.98 1.86 1.68 1.67 1.97 2.13 2.41 2.43 2.48 2.57 2.90 2.91 2.91 2.98 3.04 2.97 2.70 2.39 2.27 2.38 2.43 2.22 1.94 1.99 1.93 2.38 3.23 3.77 3.85 3.67 3.21 2.70 2.39 2.32
1.20 1.07 1.03 1.02 1.10 1.22 1.28 1.66 2.00 1.78 1.69 1.48 1.51 1.59 1.77 2.14 2.45 2.19 2.46 2.94 2.90 2.81 2.73 2.87 2.87 2.46 1.95 1.66 1.93 1.96 1.78 1.93 2.09 1.97 2.59 3.43 3.80 3.81 3.49 3.29 2.80 2.46 2.30
0.95 0.87 0.82 0.74 0.74 0.82 1.08 1.44 1.76 1.90 1.91 1.90 1.72 1.63 1.73 1.65 1.80 1.70 1.68 1.89 1.99 2.04 1.98 2.14 2.27 1.97 1.68 1.60 1.62 1.63 1.80 1.89 2.26 2.26 2.79 3.47 3.79 3.92 3.62 3.43 3.01 2.66 2.52
0.89 0.84 0.74 0.70 0.66 0.68 0.76 0.96 1.20 1.38 1.49 1.59 1.52 1.39 1.55 1.53 1.59 1.60 1.52 1.42 1.39 1.48 1.64 1.68 1.84 1.85 1.64 1.53 1.52 1.64 1.74 1.79 2.07 2.50 3.04 3.22 3.56 3.91 3.77 3.54 3.22 2.97 2.80
1.01 0.97 0.86 0.75 0.72 0.72 0.78 0.83 0.90 1.08 1.21 1.26 1.35 1.31 1.38 1.53 1.58 1.55 1.38 1.31 1.19 1.26 1.39 1.52 1.57 1.64 1.68 1.64 1.53 1.68 1.77 1.92 2.03 2.18 2.60 2.86 3.14 3.73 4.08 3.95 3.59 3.32 3.19
1.11 1.04 1.00 0.89 0.86 0.82 0.80 0.83 0.89 0.96 1.01 1.05 1.06 1.07 1.23 1.46 1.48 1.52 1.45 1.43 1.34 1.33 1.43 1.44 1.38 1.53 1.71 1.66 1.53 1.53 1.60 1.74 1.92 1.96 2.16 2.42 2.72 3.13 3.93 4.32 4.18 3.91 3.89
1.07 1.00 1.01 1.00 1.01 1.00 0.96 0.90 0.87 0.96 1.04 1.04 1.00 0.93 0.99 1.20 1.30 1.38 1.39 1.33 1.35 1.46 1.51 1.56 1.39 1.44 1.50 1.52 1.53 1.50 1.45 1.54 1.63 1.72 1.67 1.77 1.98 2.43 3.18 3.94 4.43 4.43 4.43
0.89 0.88 0.95 0.93 0.97 1.03 1.04 1.04 1.06 1.05 1.12 1.07 1.05 0.97 0.93 1.02 1.17 1.33 1.36 1.29 1.29 1.47 1.62 1.71 1.60 1.59 1.57 1.56 1.58 1.57 1.49 1.53 1.45 1.53 1.57 1.52 1.75 1.80 2.28 2.99 3.60 3.89 4.26
0.80 0.82 0.83 0.87 0.86 0.94 1.01 1.03 1.15 1.18 1.20 1.15 1.12 1.03 1.02 1.09 1.23 1.43 1.54 1.53 1.47 1.51 1.57 1.56 1.66 1.69 1.68 1.68 1.60 1.59 1.58 1.54 1.58 1.47 1.55 1.58 1.55 1.67 1.90 2.21 2.71 3.13 3.51
0.77 0.78 0.77 0.80 0.81 0.85 0.97 1.07 1.26 1.40 1.39 1.39 1.27 1.17 1.21 1.37 1.54 1.70 1.71 1.80 1.82 1.74 1.76 1.72 1.78 1.76 1.69 1.75 1.61 1.51 1.51 1.45 1.61 1.70 1.68 1.72 1.63 1.59 1.97 2.21 2.28 2.34 2.83
0.72 0.76 0.77 0.74 0.81 0.85 0.90 1.04 1.28 1.55 1.66 1.78 1.66 1.42 1.36 1.50 1.80 2.08 2.04 2.11 2.18 2.12 2.10 2.07 2.31 2.26 1.99 1.81 1.91 1.77 1.62 1.50 1.69 1.77 1.76 1.91 1.92 1.98 2.22 2.27 2.13 2.05 2.06
0.59 0.67 0.72 0.72 0.78 0.81 0.86 1.05 1.23 1.38 1.39 1.55 1.65 1.59 1.50 1.48 1.67 1.86 2.14 2.30 2.27 2.42 2.52 2.49 2.85 2.99 2.49 2.05 2.20 2.48 2.23 2.05 1.86 1.71 1.77 1.89 2.08 2.26 2.35 2.22 2.06 1.92 1.85
0.50 0.51 0.55 0.61 0.70 0.82 0.93 1.15 1.37 1.60 1.68 1.69 1.58 1.65 1.65 1.55 1.62 1.76 1.92 2.09 2.15 2.31 2.50 2.61 2.92 3.46 3.23 2.55 2.36 2.83 2.65 2.47 2.34 1.98 1.80 1.81 1.95 2.25 2.50 2.44 2.21 1.98 1.80
0.48 0.50 0.54 0.64 0.79 0.98 1.17 1.38 1.60 1.79 1.84 1.71 1.69 1.72 1.60 1.51 1.49 1.62 1.75 1.88 2.03 2.10 2.30 2.38 2.51 3.09 3.51 3.17 2.86 2.55 2.25 2.25 2.46 2.46 2.07 1.87 1.86 2.03 2.28 2.28 2.16 2.11 1.96
0.59 0.66 0.71 0.86 1.09 1.34 1.53 1.78 2.07 2.03 1.91 1.82 1.75 1.71 1.66 1.64 1.59 1.59 1.76 1.82 1.85 1.94 2.09 2.44 2.71 3.00 3.25 3.29 3.27 3.04 2.73 2.44 2.11 2.42 2.52 2.18 2.03 1.97 2.04 2.13 2.05 2.04 2.04
0.89 1.06 1.27 1.50 1.64 1.74 1.84 1.97 2.09 2.06 2.06 2.02 1.81 1.69 1.67 1.70 1.75 1.75 1.80 1.82 1.79 1.84 1.97 2.24 2.57 2.81 3.13 3.35 3.33 3.13 3.00 2.86 2.60 2.54 2.45 2.31 2.31 2.15 2.00 1.96 1.86 1.88 2.04